Location: Arbon
(43.0005°N, 0.7472°E)
Time: 10:07:13
(UTC+00:00)

Vanguard 2 Rocket - Pass Details

Date: 29 November 2020
Orbit: 554 x 3325 km, 32.9° (Epoch: 21 January)

Event Time Altitude Azimuth Distance (km) Brightness Sun altitude
Rises 06:13:50 0° 216° (SW) 6,758 11.2 -9.6°
Reaches altitude 10° 06:18:34 10° 209° (SSW) 5,983 11.0 -8.8°
Maximum altitude 06:35:40 39° 150° (SSE) 4,323 10.9 -5.9°
Drops below altitude 10° 06:51:38 10° 90° (E) 5,643 12.2 -3.3°
Sets 06:55:53 0° 83° (E) 6,360 12.3 -2.6°
